EHI
0 0 0 0 0 0 1 0 0 0 0 1 1 1 0 0 0 0 0 0 0 0 0 0 0 0 0 0 0 0 0 0 0 0 0 0 0 0 0 0 0 0 0
0 0 0 0 0 0 1 0 0 0 0 0 0 0 0 0 0 0 0 0 0 0 0 0 0 0 0 0 0 0 0 0 0 0 0 0 0 0 0 0 0 0 0
0 0 0 0 0 0 0 0 0 0 0 0 0 0 0 0 0 0 0 0 0 0 0 0 0 0 0 0 0 0 0 0 0 0 0 0 0 0 0 0 0 0 0
0 0 0 0 0 0 0 0 1 1 1 0 0 0 0 0 0 0 0 0 0 0 0 0 0 0 0 0 0 0 0 0 0 0 0 0 0 0 0 0 0 0 0
0 0 0 0 0 0 0 1 2 2 2 1 1 0 0 0 0 0 0 0 0 0 0 0 0 0 0 0 0 0 0 0 0 0 0 0 0 0 0 0 0 0 0
0 0 0 0 0 0 1 2 3 3 3 2 1 0 0 0 0 0 0 0 0 0 0 0 0 0 0 0 0 0 0 0 0 0 0 0 0 0 0 0 0 0 0
0 0 0 0 1 1 2 3 3 3 2 2 1 0 0 0 0 0 0 0 0 0 0 0 0 0 0 0 0 0 0 0 0 0 0 0 0 0 0 0 0 0 0
1 0 0 0 1 2 3 2 2 1 1 1 0 0 0 0 0 0 0 0 0 0 0 0 0 0 0 0 0 0 0 0 0 0 0 0 0 0 0 0 0 0 0
2 1 0 0 1 3 3 2 1 0 0 0 0 0 0 0 0 0 0 0 0 0 0 0 0 0 0 0 0 0 0 0 0 0 0 0 0 0 0 0 0 0 0
2 2 1 0 1 2 3 3 2 1 0 0 0 0 0 0 0 0 0 0 0 0 0 0 0 0 0 0 1 0 0 0 0 0 0 0 0 0 0 0 0 0 0
1 2 2 1 1 2 3 3 3 2 0 0 0 0 0 0 0 0 0 0 0 0 0 0 0 0 0 0 0 0 0 0 0 0 0 0 0 0 0 0 0 0 0
0 1 1 1 2 2 3 3 3 1 0 0 0 0 0 0 0 0 0 0 0 0 0 0 0 0 0 0 0 0 0 0 0 0 0 0 0 0 0 0 0 0 0
0 0 0 1 1 2 3 3 2 1 0 0 0 0 0 0 0 0 0 0 0 0 0 0 0 0 0 0 0 0 0 0 0 0 0 0 0 0 0 0 0 0 0
0 0 0 0 0 1 1 2 1 0 0 1 1 0 0 0 0 0 0 0 0 0 0 0 0 0 0 0 0 0 0 0 0 0 0 0 0 0 0 0 0 0 0
0 0 0 0 1 1 1 1 1 1 1 2 1 0 0 0 0 0 0 0 0 0 0 0 0 0 0 0 0 0 0 0 0 0 0 0 0 0 0 0 0 0 0
0 0 0 0 1 2 2 2 2 2 2 2 1 0 0 0 0 0 0 0 0 0 0 0 0 0 0 0 0 0 0 0 0 0 0 0 0 0 0 0 0 0 0
0 0 0 0 0 1 3 3 3 3 3 1 0 0 0 0 0 0 0 0 0 0 0 0 0 0 0 0 0 0 0 0 0 0 0 0 0 0 0 0 0 0 0
0 1 1 1 1 1 3 3 3 3 3 1 1 1 1 1 1 1 0 0 0 0 0 0 0 0 0 0 0 0 0 0 0 0 0 0 0 0 0 0 0 0 0
1 2 2 2 2 3 3 3 3 3 3 3 2 2 2 2 2 1 0 0 0 0 0 0 0 0 0 0 0 0 0 0 0 0 0 0 0 0 0 0 0 0 0
1 2 3 3 3 3 3 3 3 3 3 3 3 3 3 3 3 1 0 0 0 0 0 0 0 0 0 0 0 0 0 0 0 0 0 0 0 0 0 0 0 0 0
0 1 1 2 2 2 2 3 3 2 2 2 2 2 2 2 2 1 0 0 0 0 0 0 0 0 0 0 0 0 0 0 0 0 0 0 0 0 0 0 0 0 0
0 0 0 1 1 0 1 2 1 1 1 1 1 1 1 1 1 0 0 0 0 0 0 0 0 0 0 0 0 0 0 0 0 0 0 0 0 0 0 0 0 0 0
0 0 0 0 0 0 0 0 0 0 0 0 0 0 0 0 0 0 0 0 0 0 0 0 0 0 0 0 0 0 0 0 0 0 0 0 0 0 0 0 0 0 0
0 0 0 0 0 0 0 0 0 0 0 0 0 0 0 0 0 0 0 0 0 0 0 0 0 0 0 0 0 0 0 0 0 0 0 0 0 0 0 0 0 0 0
0 0 0 0 0 0 0 0 0 0 0 0 0 0 0 0 0 0 0 0 0 0 0 0 0 0 0 0 0 0 0 0 0 0 0 0 0 0 0 0 0 0 0
0 0 0 0 0 0 0 0 0 0 0 0 0 0 0 0 0 0 0 0 0 0 0 0 0 0 0 0 0 0 0 0 0 0 0 0 0 0 0 0 0 0 0
Wind_Speed
5 4 4 4 4 4 4 4 5 4 4 2 2 2 2 1 2 2 2 2 1 2 2 2 2 2 2 2 2 2 3 2 2 1 2 2 3 4 3 3 3 4 5
6 6 5 5 4 4 4 4 4 4 4 2 1 1 2 1 2 2 2 1 2 2 2 2 2 2 2 2 2 2 1 1 1 1 1 1 2 2 3 2 2 3 3
6 6 6 5 5 4 4 3 4 4 4 3 2 2 2 2 2 2 2 1 2 2 1 2 2 2 2 2 2 2 1 1 0 1 2 2 1 1 2 3 2 3 2
6 6 5 5 5 4 4 4 4 4 4 4 3 4 3 2 2 2 2 2 2 3 2 2 2 2 1 2 2 1 1 1 1 0 2 3 1 1 1 1 2 2 2
6 6 5 5 4 4 4 3 4 4 3 3 3 3 2 2 2 2 3 2 2 2 2 2 2 2 1 1 1 1 1 1 1 1 0 1 1 3 1 0 1 1 1
6 6 5 4 4 4 4 4 4 4 3 3 3 3 3 3 3 3 2 2 2 2 2 2 2 2 2 2 1 1 1 1 1 1 1 1 1 1 1 1 1 0 1
6 6 6 5 4 4 5 5 5 5 5 4 4 3 3 3 3 3 3 2 2 2 2 2 2 2 2 2 1 1 1 1 1 1 1 1 1 1 2 2 1 1 1
6 6 6 6 5 5 5 5 5 5 5 4 4 3 3 2 2 2 2 2 1 1 2 2 2 2 2 2 2 1 1 1 1 1 1 1 1 1 1 1 2 2 1
5 5 6 6 5 5 5 5 5 5 5 5 5 4 4 3 3 2 2 2 2 2 3 3 2 2 2 2 2 2 2 1 1 1 1 1 0 1 1 1 2 3 3
4 5 5 5 5 5 5 5 5 5 5 5 4 3 4 4 3 3 3 3 2 3 3 3 3 3 3 3 2 2 1 1 1 0 1 1 1 0 1 1 2 3 3
3 4 4 4 4 5 5 5 5 5 5 5 4 5 4 4 4 3 3 3 3 3 4 4 3 3 3 3 3 2 2 2 2 2 2 2 1 1 1 1 1 2 2
3 3 3 3 4 4 4 4 5 5 5 4 4 4 4 4 4 4 4 4 3 3 3 4 4 3 3 3 3 3 3 2 2 2 2 2 2 2 1 1 2 1 2
3 3 3 4 4 4 4 4 4 4 5 4 4 4 4 4 4 4 4 3 3 3 3 3 3 3 3 3 3 3 3 3 2 2 3 2 3 3 2 3 2 2 2
3 3 3 4 4 4 4 4 4 4 5 5 5 4 4 4 4 4 4 4 4 4 4 3 3 3 3 3 3 3 3 3 2 3 3 3 3 3 3 3 3 2 2
3 3 3 3 4 4 4 4 4 4 4 5 5 4 4 4 4 4 4 4 4 4 4 4 4 4 3 3 3 4 4 4 3 3 3 2 1 2 2 2 2 3 3
3 3 3 3 4 4 5 5 5 4 4 4 4 4 3 4 4 4 4 4 4 4 4 4 4 4 3 2 2 4 4 4 4 4 4 3 5 4 4 4 4 4 4
3 4 4 4 4 4 4 5 5 4 5 5 4 4 4 4 4 4 4 4 5 5 5 5 5 5 4 4 5 6 5 5 5 5 4 3 3 5 5 6 7 6 6
3 3 4 3 3 3 4 4 4 5 5 4 5 5 5 5 5 5 5 5 5 5 5 5 6 5 5 6 6 6 8 6 6 6 5 5 5 5 5 5 6 6 5
3 3 3 3 3 3 4 4 4 4 4 4 5 5 5 5 5 5 6 5 5 5 6 6 6 7 6 7 8 7 7 6 7 7 7 7 7 3 4 6 6 6 4
2 2 2 3 3 3 4 4 5 5 5 5 5 5 5 5 6 6 6 5 5 6 5 6 6 7 7 6 8 9 6 7 6 6 6 6 6 4 6 7 6 6 5
2 3 3 3 3 4 4 5 5 6 5 5 5 5 6 6 6 5 5 5 5 6 6 6 6 7 7 6 8 9 7 6 6 5 5 4 7 7 8 8 7 5 5
3 3 3 3 3 4 5 6 6 5 5 5 5 5 6 5 5 5 5 5 5 5 5 6 6 5 5 5 6 9 9 7 7 6 5 4 7 8 9 8 5 4 5
3 3 3 3 4 4 5 6 5 4 5 5 5 5 6 5 5 5 5 5 5 5 5 5 5 4 4 4 6 9 9 8 6 5 4 3 5 7 7 7 6 5 5
3 3 4 4 4 4 5 6 5 5 5 6 6 5 5 5 5 4 4 5 5 5 5 5 5 4 4 4 4 4 5 7 6 5 3 5 5 5 5 5 6 6 5
4 4 4 5 5 4 5 5 5 5 5 6 5 5 5 5 5 5 4 5 5 4 5 4 4 4 5 4 4 4 4 4 5 4 4 4 4 5 5 5 5 5 5
4 4 5 5 5 5 5 5 5 5 6 5 5 4 4 4 4 4 4 3 5 4 4 5 5 4 5 5 5 6 7 6 6 5 5 5 5 5 5 5 5 5 5
Wind_Direction
169 164 163 162 161 161 159 148 154 154 157 155 161 158 149 147 124 116 112 130 139 127 109 121 108 115 114 111 113 104 112 120 119 111 97 90 69 57 60 45 45 55 50
175 167 174 168 174 168 166 162 162 163 165 165 176 164 152 148 113 118 123 146 150 135 142 148 134 135 130 135 116 112 102 105 226 287 265 174 133 80 62 65 50 47 57
191 176 178 176 178 181 179 174 173 169 165 166 166 157 151 159 156 140 124 128 134 130 143 137 142 145 153 142 155 157 172 191 216 315 305 301 28 91 96 60 60 54 44
197 184 184 183 182 180 180 181 179 175 168 168 179 182 185 169 150 133 131 137 133 133 146 153 155 152 160 161 182 178 219 244 242 98 319 324 2 266 151 127 68 54 45
193 188 190 188 182 174 179 187 175 173 169 171 173 199 180 150 138 142 147 147 132 138 152 162 159 162 172 168 144 168 252 259 304 324 320 346 290 275 279 190 139 107 76
190 191 184 183 180 171 175 181 181 169 165 171 176 189 175 175 165 163 160 165 147 148 140 158 164 166 161 162 169 183 233 291 310 286 272 259 261 284 296 261 224 90 72
188 189 186 187 186 182 181 184 186 179 175 176 183 187 188 189 190 183 174 185 164 161 153 165 173 162 164 167 172 169 209 229 248 278 310 303 302 289 287 277 293 292 238
187 191 192 193 191 189 189 191 188 184 179 185 183 187 189 193 193 196 188 191 177 156 152 166 173 171 180 183 170 201 195 222 215 226 266 262 288 291 285 292 285 267 242
188 192 193 196 195 192 193 196 189 186 185 190 189 187 190 192 190 192 190 190 184 163 164 173 179 172 180 188 179 199 192 210 228 221 218 237 198 226 258 269 272 283 274
191 192 193 197 196 193 193 194 192 189 186 190 191 186 194 190 193 194 191 187 182 172 178 186 184 176 179 190 188 189 187 184 148 243 249 218 219 190 229 258 277 287 289
196 194 194 193 189 187 189 192 191 189 188 190 188 187 189 188 191 195 191 191 190 187 187 188 189 180 180 183 177 190 181 200 177 183 200 201 211 214 209 229 253 269 273
195 189 185 183 184 188 189 190 192 187 185 188 188 192 187 191 198 196 196 196 190 188 195 186 188 187 186 182 186 190 198 213 208 196 199 199 188 215 232 229 236 246 259
193 177 177 187 188 190 190 188 190 190 182 182 188 193 195 197 202 202 196 201 196 193 194 190 195 188 191 194 204 205 208 214 219 220 222 223 214 214 209 225 233 236 240
184 177 182 193 195 194 192 189 187 187 184 180 190 199 202 202 204 206 202 205 202 201 201 199 202 199 200 207 213 217 217 216 219 223 232 238 238 233 226 224 231 234 233
186 185 191 193 193 195 194 191 190 187 187 187 194 202 202 202 206 203 204 205 206 212 209 211 210 211 215 219 225 220 225 221 221 223 224 226 260 316 282 266 246 234 235
202 197 196 194 200 200 198 194 195 194 191 194 197 197 199 197 205 205 203 204 204 214 215 220 221 218 220 172 241 256 232 230 227 228 228 206 202 200 216 237 257 270 256
226 216 207 202 207 207 204 201 199 192 196 201 201 196 198 197 204 201 201 207 209 210 216 222 224 225 207 180 209 241 250 240 239 237 235 234 222 217 220 207 213 226 237
249 237 226 210 209 205 200 200 198 198 203 208 209 202 203 202 204 206 208 214 218 212 219 225 227 232 216 194 212 226 244 243 238 239 239 237 234 222 237 236 234 236 226
272 253 239 220 206 202 197 196 199 202 208 217 220 211 208 208 210 215 218 221 222 222 224 227 232 231 222 204 212 221 239 240 238 236 237 241 242 194 232 245 243 243 235
282 263 238 224 217 209 201 204 209 213 220 225 231 224 216 213 216 224 226 221 223 228 230 232 236 237 239 206 208 221 235 238 239 237 232 229 246 210 215 242 246 249 248
281 264 241 230 226 216 208 214 219 225 229 230 235 230 221 221 223 229 230 228 228 232 235 236 237 240 242 217 207 217 237 238 240 237 232 218 202 216 221 247 255 258 270
273 259 245 240 232 221 218 227 233 236 231 226 229 229 225 222 222 226 234 234 229 230 235 237 236 237 233 233 215 215 233 255 246 244 243 225 191 212 222 234 251 256 256
274 259 249 246 237 227 226 233 238 238 232 225 231 232 227 222 225 225 226 228 227 231 235 237 238 235 233 222 221 221 226 240 248 251 262 245 206 214 222 226 231 229 234
275 263 252 248 245 237 235 239 237 233 231 229 232 230 224 223 224 227 228 226 226 228 231 235 239 239 236 237 228 225 220 219 233 243 229 215 209 223 236 221 218 228 234
275 266 261 259 257 247 240 242 233 226 232 234 236 233 225 226 227 226 234 233 234 240 241 240 242 241 243 248 257 247 241 229 220 221 223 221 218 222 225 226 226 228 227
272 268 265 260 256 247 239 235 227 224 230 233 235 231 226 222 226 231 232 228 237 237 241 256 260 257 261 267 246 243 244 235 217 216 223 225 227 229 231 232 230 229 232